Galveston Weather Center

Moon Phase Calendar



Online Cameras

 


      

Current Conditions in Texas City
8/19/2022 11:32:19 PM

78°F
Feels Like 79
Clouds
Humidity
72%
Pressure
29.94"
Wind
15.2 mph (S)
Dew Point
68°F
UV Index
0/10 (Low)
Visibility
6 mi

Hourly Forecast

Date & Time Fri, Aug 19
11:00 PM
Sat, Aug 20
12:00 AM
Sat, Aug 20
1:00 AM
Sat, Aug 20
2:00 AM
Sat, Aug 20
3:00 AM
Sat, Aug 20
4:00 AM
Sat, Aug 20
5:00 AM
Sat, Aug 20
6:00 AM
Sat, Aug 20
7:00 AM
Sat, Aug 20
8:00 AM
Sat, Aug 20
9:00 AM
Sat, Aug 20
10:00 AM
Sat, Aug 20
11:00 AM
Sat, Aug 20
12:00 PM
Sat, Aug 20
1:00 PM
Sat, Aug 20
2:00 PM
Sat, Aug 20
3:00 PM
Sat, Aug 20
4:00 PM
Sat, Aug 20
5:00 PM
Sat, Aug 20
6:00 PM
Sat, Aug 20
7:00 PM
Sat, Aug 20
8:00 PM
Sat, Aug 20
9:00 PM
Sat, Aug 20
10:00 PM
Sat, Aug 20
11:00 PM
Sun, Aug 21
12:00 AM
Sun, Aug 21
1:00 AM
Sun, Aug 21
2:00 AM
Sun, Aug 21
3:00 AM
Sun, Aug 21
4:00 AM
Sun, Aug 21
5:00 AM
Sun, Aug 21
6:00 AM
Sun, Aug 21
7:00 AM
Sun, Aug 21
8:00 AM
Sun, Aug 21
9:00 AM
Sun, Aug 21
10:00 AM
Sun, Aug 21
11:00 AM
Sun, Aug 21
12:00 PM
Sun, Aug 21
1:00 PM
Sun, Aug 21
2:00 PM
Sun, Aug 21
3:00 PM
Sun, Aug 21
4:00 PM
Sun, Aug 21
5:00 PM
Sun, Aug 21
6:00 PM
Sun, Aug 21
7:00 PM
Sun, Aug 21
8:00 PM
Sun, Aug 21
9:00 PM
Sun, Aug 21
10:00 PM
Condition
Clouds

Clouds

Clouds

Clouds

Clouds

Clouds

Clouds

Clouds

Clouds

Clouds

Clouds

Clouds

Rain

Rain

Rain

Clouds

Clouds

Clouds

Rain

Rain

Rain

Clouds

Clouds

Clouds

Clouds

Clouds

Clouds

Clouds

Clouds

Clouds

Clouds

Rain

Rain

Clouds

Clouds

Clouds

Rain

Rain

Clouds

Clouds

Clouds

Rain

Clouds

Clouds

Clouds

Clouds

Clouds

Clouds
Temperature 79°F78°F79°F80°F82°F83°F84°F84°F84°F84°F85°F85°F85°F85°F85°F86°F86°F86°F85°F85°F85°F85°F85°F85°F85°F85°F85°F85°F85°F85°F85°F85°F85°F85°F85°F86°F85°F86°F86°F86°F86°F86°F86°F86°F85°F85°F85°F85°F
Feels Like 79°F79°F79°F84°F86°F89°F92°F92°F93°F93°F93°F93°F94°F94°F94°F94°F94°F95°F93°F93°F94°F94°F95°F95°F95°F95°F95°F95°F95°F95°F95°F95°F95°F95°F96°F96°F96°F96°F97°F97°F97°F97°F96°F95°F95°F95°F95°F95°F
Cloudiness 89%89%89%93%96%98%100%97%98%99%96%73%65%68%65%46%43%52%43%55%62%44%40%31%27%26%34%88%69%71%68%61%64%100%100%100%100%100%100%100%100%100%100%100%100%100%100%100%
Visibility 6 mi6 mi6 mi6 mi6 mi6 mi6 mi6 mi6 mi6 mi6 mi6 mi6 mi6 mi6 mi6 mi6 mi6 mi6 mi6 mi6 mi6 mi6 mi6 mi6 mi6 mi6 mi6 mi6 mi6 mi6 mi6 mi6 mi6 mi6 mi6 mi6 mi6 mi6 mi6 mi6 mi6 mi6 mi6 mi6 mi6 mi6 mi6 mi
Precipitation 10%18%15%0%8%8%8%8%8%24%35%37%57%73%76%35%40%41%61%61%60%20%16%19%15%11%5%0%5%8%11%35%39%27%30%34%58%62%66%24%26%33%33%27%27%16%15%23%
Humidity 72%72%72%72%73%73%73%73%74%74%73%71%72%73%72%70%68%69%72%72%74%74%74%75%76%76%76%76%76%76%76%77%77%76%76%75%76%75%74%73%73%74%73%73%74%75%76%77%
Dew Point 69°F68°F69°F70°F72°F73°F75°F75°F75°F75°F75°F75°F75°F75°F75°F75°F74°F75°F75°F75°F75°F76°F76°F76°F77°F77°F77°F77°F77°F76°F77°F77°F77°F77°F77°F77°F77°F77°F77°F76°F76°F76°F76°F76°F76°F76°F76°F77°F
Pressure 29.94"29.94"29.94"29.94"29.94"29.94"29.94"29.94"29.97"30"30"30.03"30.03"30.03"30.03"30"30"30"30"30"29.97"29.97"29.97"30"30"30"29.97"29.97"29.97"29.97"29.97"29.97"30"30"30"30.03"30.03"30.03"30"30"29.97"29.97"29.97"29.97"29.94"29.94"29.97"29.97"
Wind Speed 15.7 mph15.2 mph14.2 mph14.5 mph15.2 mph13.7 mph12.7 mph12.5 mph13.4 mph14.4 mph13.2 mph10.6 mph9.5 mph10.3 mph11.7 mph12.8 mph13.4 mph13.7 mph13 mph13.8 mph13.2 mph15.3 mph15.3 mph16.1 mph15.7 mph15.6 mph15.2 mph15.5 mph15.5 mph15.1 mph15.7 mph15.7 mph14.7 mph13.9 mph13.4 mph13 mph14.9 mph15.2 mph14.8 mph14.4 mph14.7 mph14.2 mph13.2 mph13.1 mph12.7 mph11.4 mph10.5 mph12.2 mph
Wind
Direction
171°
S
179°
S
183°
S
181°
S
182°
S
183°
S
183°
S
180°
S
179°
S
174°
S
175°
S
173°
S
166°
SSE
163°
SSE
157°
SSE
155°
SSE
160°
SSE
163°
SSE
163°
SSE
161°
SSE
164°
SSE
170°
S
171°
S
165°
SSE
164°
SSE
165°
SSE
168°
SSE
169°
S
172°
S
172°
S
173°
S
176°
S
179°
S
179°
S
180°
S
180°
S
176°
S
177°
S
178°
S
175°
S
173°
S
174°
S
174°
S
171°
S
171°
S
166°
SSE
156°
SSE
145°
SE

Daily Forecast

Date High Low Precip. Humidity
Today
Aug 19

Rain
84 °F
79 °F
100%
71%
Saturday
Aug 20

Rain
86 °F
78 °F
76%
72%
Sunday
Aug 21

Rain
86 °F
85 °F
66%
74%
Monday
Aug 22

Rain
86 °F
83 °F
100%
70%
Tuesday
Aug 23

Rain
84 °F
77 °F
100%
81%
Wednesday
Aug 24

Rain
81 °F
77 °F
100%
85%
Thursday
Aug 25

Rain
83 °F
80 °F
68%
70%
Friday
Aug 26

Rain
84 °F
80 °F
64%
71%
Saturday
Aug 27

Rain
85 °F
81 °F
37%
65%
Sunday
Aug 28

Rain
85 °F
82 °F
64%
68%
Monday
Aug 29

Rain
86 °F
83 °F
44%
65%
Tuesday
Aug 30

Rain
87 °F
82 °F
41%
63%
Wednesday
Aug 31

Rain
85 °F
82 °F
70%
71%
Thursday
Sep 1

Rain
84 °F
81 °F
31%
68%
Friday
Sep 2

Rain
84 °F
81 °F
88%
74%
Saturday
Sep 3

Rain
84 °F
83 °F
97%
76%

Temperature 8-14 Day Outlook



Precipitation 8-14 Day Outlook




Quick Links
Galveston News
Galveston Photos
Galveston Videos




About Us
Contact Us
Site Map
Search Site
Advertise With Us
   
Galveston.USGulf.info
THE GALVESTON WEBSITE

Copyright 2022, Coastal Town
Privacy    |    Legal